Wind_Speed
16 16 16 16 17 17 17 17 17 18 18 18 19 19 19 19 20 21 22 22 21 21 21 21 21 21 20 20 19 17 17 18 18 21 26 21 14 14 18 17 13 14 19 18 17 16 14 13 11 8 9 7 6 5 4 8 9 5 1 3 3 3 4 5 6 7 9 9 11 18 25 21 13 14 17 17 20 25 18 11 15 10 13 22 21 30 31 28
16 16 16 16 17 17 17 17 18 18 18 19 19 19 20 20 20 21 22 22 22 22 22 22 22 21 21 21 19 17 18 19 20 24 24 15 12 16 17 19 18 17 19 20 18 17 15 13 11 9 8 6 5 4 3 4 7 4 3 2 4 5 5 6 9 10 13 15 15 19 25 23 19 22 23 16 15 18 15 14 16 16 19 21 26 32 27 28
16 16 17 17 17 17 17 18 18 18 18 19 19 20 20 20 20 21 22 22 23 23 22 22 23 22 22 21 19 17 19 21 23 23 16 10 13 17 19 21 22 21 20 19 18 16 16 13 10 8 5 4 6 7 4 4 5 5 5 2 5 6 4 7 15 16 21 24 19 18 21 21 24 27 23 17 15 14 13 17 20 20 24 28 31 32 30 30
16 16 17 17 17 17 18 18 18 19 19 19 19 20 20 21 21 21 21 22 23 24 23 22 23 23 22 22 19 16 19 20 18 13 7 7 9 13 18 23 24 24 21 19 18 17 15 14 11 7 4 3 5 8 5 6 6 4 6 5 6 6 4 10 19 21 27 31 24 20 18 17 25 27 23 22 14 7 13 25 30 29 32 34 34 34 33 31
17 17 17 17 17 18 18 18 19 19 19 19 20 20 20 21 21 21 21 22 23 24 24 23 23 22 22 22 19 16 15 11 5 2 4 6 8 12 16 22 25 25 23 20 20 18 15 14 10 4 3 2 3 5 4 9 9 3 7 10 9 9 6 11 22 26 28 30 25 21 17 19 25 22 26 29 15 11 22 30 35 37 38 38 38 37 35 33
18 18 18 18 18 18 18 19 19 20 20 20 20 20 20 21 22 22 22 22 22 23 24 24 23 22 22 22 20 16 9 4 4 3 7 10 10 11 14 21 25 26 25 23 21 18 16 11 7 5 4 2 3 6 4 6 8 4 7 9 14 16 10 13 24 28 28 26 21 19 20 25 22 16 29 31 17 23 32 33 35 38 40 39 40 39 37 36
19 19 19 19 18 18 18 19 19 20 20 21 21 21 21 21 22 23 23 22 23 23 24 25 24 23 22 21 20 14 10 14 13 8 9 11 11 10 12 19 24 27 27 26 23 19 16 10 7 7 4 1 4 6 3 4 4 7 6 6 18 23 16 19 26 28 29 26 22 23 24 24 20 16 25 21 13 24 31 31 36 37 39 39 39 39 39 37
19 20 20 20 20 19 19 19 19 20 21 21 21 21 21 22 22 23 23 23 23 24 24 24 25 25 22 20 17 14 15 18 12 7 9 9 8 7 10 19 23 27 27 26 24 21 16 10 9 6 3 3 3 4 4 7 4 7 7 7 16 21 20 23 27 28 27 24 24 24 19 18 22 21 17 14 15 25 29 32 35 37 38 38 39 39 38 37
20 20 20 21 21 20 20 20 20 20 21 21 21 22 22 22 23 23 24 24 24 24 25 25 25 26 22 17 13 11 14 12 8 8 8 7 6 3 8 18 23 25 26 25 23 21 15 9 9 8 4 2 3 4 4 4 4 5 9 11 12 17 21 25 25 26 24 23 26 20 11 14 24 20 8 12 23 26 30 34 35 37 38 37 37 37 37 37
21 21 21 21 21 21 21 21 21 21 21 21 22 22 22 23 23 24 24 24 25 25 25 25 26 26 21 15 7 5 9 8 8 7 6 7 4 2 6 14 21 24 24 24 23 21 15 9 8 7 3 2 3 4 5 2 7 6 13 13 15 20 22 25 24 24 23 22 28 20 9 16 23 16 5 13 26 29 33 34 35 37 37 36 35 36 37 36
22 22 22 22 22 22 22 22 22 22 22 22 22 22 23 23 24 24 25 25 26 26 26 26 26 24 19 13 7 7 9 8 9 6 6 8 5 3 4 8 16 21 23 23 23 20 15 11 9 4 1 1 3 7 5 5 8 9 19 11 13 18 17 23 21 23 21 14 27 27 11 12 12 8 11 22 29 32 36 34 35 36 34 35 35 36 36 35
23 23 23 22 23 22 22 23 23 23 23 23 22 23 23 24 25 25 25 26 27 27 28 27 24 21 17 15 17 14 11 12 13 10 7 9 7 6 5 6 11 15 20 23 20 16 12 12 10 5 3 2 4 5 7 11 5 16 22 10 8 11 9 15 15 22 20 11 28 30 10 3 2 6 20 30 32 33 35 34 34 33 33 34 35 36 36 35
23 23 24 24 24 23 23 23 23 24 23 23 23 23 23 24 25 25 26 27 28 28 28 25 20 18 14 16 23 19 14 15 16 14 11 10 9 8 9 9 10 12 17 20 17 11 9 10 10 9 7 4 3 3 10 9 8 15 12 8 8 7 4 8 10 18 17 17 32 23 4 3 3 11 26 32 34 33 31 32 32 31 32 33 34 36 36 35
22 23 24 24 25 24 24 23 23 24 24 24 23 23 24 24 25 26 26 27 28 27 23 17 13 13 11 18 26 20 13 14 18 18 12 11 11 9 10 11 13 14 15 16 13 10 8 8 8 8 8 7 6 7 9 5 10 8 5 3 5 7 5 5 6 13 11 16 24 12 2 6 4 13 28 32 35 34 30 30 31 31 32 32 34 36 36 36
21 22 23 23 24 25 25 24 24 24 24 24 23 23 23 24 24 25 25 26 26 20 13 11 10 10 12 21 22 13 10 12 16 18 13 10 11 10 10 11 13 15 14 13 11 11 9 7 7 7 5 6 7 4 4 4 4 3 4 1 2 6 6 5 6 10 12 14 12 6 3 5 5 15 27 32 34 34 31 29 29 30 32 33 34 36 36 36
22 22 22 23 23 23 24 24 25 26 25 23 23 22 22 23 23 23 23 21 17 11 8 8 9 8 8 15 13 6 6 8 10 14 14 11 9 9 8 9 13 14 12 11 11 10 9 7 7 6 4 4 3 2 3 5 3 3 3 4 5 6 6 4 8 11 13 14 7 3 6 4 5 17 27 32 33 32 29 28 29 30 32 33 34 36 37 35
23 23 23 23 23 23 23 23 25 26 26 24 23 21 21 21 20 20 16 12 12 12 12 11 10 10 10 12 11 6 4 3 4 8 11 12 10 9 8 9 13 14 12 11 11 10 9 7 5 4 4 3 3 5 3 3 5 5 1 5 7 9 10 7 7 12 9 12 7 4 8 7 8 18 28 31 33 31 27 28 30 30 32 34 34 35 36 36
24 25 25 24 24 24 23 23 24 26 26 24 23 22 20 18 18 15 10 11 16 15 13 10 6 6 9 10 10 8 9 13 11 8 8 11 12 11 10 9 11 13 12 9 10 11 10 6 3 2 0 2 2 5 4 3 7 7 4 6 5 8 12 11 10 10 10 9 7 7 7 7 9 17 24 30 33 30 28 30 31 31 33 34 34 34 35 37
25 25 25 25 25 24 23 23 24 25 26 23 21 21 18 15 13 9 9 17 18 10 7 7 6 5 12 20 19 15 19 23 18 14 12 11 11 13 11 10 11 14 10 4 6 10 10 3 2 3 2 4 5 6 8 8 9 9 7 8 9 8 10 12 9 11 14 9 6 10 9 9 12 15 19 27 32 29 28 29 30 31 33 34 35 35 35 38
25 25 26 26 25 24 23 23 24 25 25 22 20 18 13 12 9 6 16 26 22 15 16 17 19 20 24 32 30 22 24 25 20 17 13 11 12 14 14 13 12 11 8 5 4 8 11 5 3 6 6 7 8 8 9 7 7 8 4 5 9 11 9 9 7 10 14 9 6 9 10 12 16 15 18 27 29 25 25 25 27 30 32 33 35 36 37 39
25 25 26 25 25 25 22 23 24 23 23 22 21 15 9 9 6 7 21 30 27 21 24 28 27 28 29 32 33 28 23 22 24 21 15 14 14 13 14 13 8 5 6 6 4 4 9 7 7 9 9 9 8 8 6 5 5 5 3 3 5 8 8 7 7 10 11 6 4 5 8 12 15 15 17 23 23 20 25 26 26 31 32 34 36 37 38 38
25 25 25 26 26 25 23 23 22 23 23 19 17 11 6 7 5 7 13 19 29 28 26 30 29 32 34 33 35 30 17 14 23 25 18 14 15 13 10 9 7 4 4 5 3 3 5 6 10 10 7 8 5 4 6 5 4 3 3 4 3 4 2 3 5 10 10 4 4 7 8 9 12 14 15 20 21 22 30 32 31 34 32 32 36 38 39 37
26 25 26 26 26 25 23 22 21 22 20 15 14 9 4 5 6 10 9 10 26 30 23 26 28 33 35 33 34 26 16 13 17 23 19 12 15 18 11 6 6 5 4 5 6 6 4 6 9 8 6 7 5 4 7 3 2 3 3 5 3 4 3 3 6 11 8 2 4 6 4 2 5 7 9 17 23 22 28 33 32 35 36 37 39 40 40 38
25 25 25 26 27 25 23 22 22 18 14 13 13 8 4 6 7 12 11 6 15 20 22 26 27 33 34 29 25 20 20 19 16 20 20 14 15 18 12 6 6 5 5 7 8 7 5 6 6 7 7 8 6 5 8 5 2 3 4 5 4 5 5 3 5 8 4 4 5 8 4 3 4 7 7 13 18 17 21 26 27 31 37 39 39 39 41 41
24 25 25 26 27 26 23 22 17 13 14 13 9 6 5 6 8 12 9 3 7 12 16 18 17 24 26 22 18 17 17 18 19 21 20 17 17 13 9 8 8 5 6 7 6 6 8 8 6 7 7 8 7 6 6 7 4 3 4 8 8 8 7 6 10 9 4 1 3 8 3 4 4 8 9 8 11 13 15 19 23 28 33 33 33 36 39 40
23 24 24 25 26 27 24 18 13 14 17 12 6 6 5 5 7 8 3 2 5 7 5 4 6 7 9 15 21 18 8 10 19 23 20 19 20 15 9 6 5 5 7 5 3 4 6 7 6 6 7 8 7 6 6 8 6 3 6 8 10 9 7 11 14 11 6 5 7 9 6 3 4 8 11 9 10 13 12 13 21 27 30 30 33 36 38 39
23 23 23 23 24 27 25 19 16 17 15 9 7 8 6 6 5 4 2 3 4 4 1 3 3 1 3 9 21 18 3 8 17 23 24 20 21 23 13 4 4 4 5 5 4 4 5 8 7 6 6 6 6 6 6 9 7 4 6 7 8 8 7 11 14 11 6 3 3 6 3 2 4 8 10 10 9 11 11 12 17 25 30 32 35 38 39 40
22 21 22 23 22 23 25 22 20 17 12 9 9 8 6 6 5 1 3 2 4 2 2 3 4 4 4 7 23 19 4 5 8 17 27 22 20 22 12 6 7 5 5 6 6 5 4 9 9 8 6 5 5 6 7 11 6 7 6 7 7 8 8 9 11 9 6 5 4 6 3 3 4 5 6 9 9 11 15 16 16 23 31 33 36 39 40 42
22 20 21 23 21 20 23 23 19 15 11 8 8 8 7 6 4 2 4 1 4 3 2 2 3 4 2 7 19 17 9 7 4 12 23 22 22 20 11 9 9 6 7 7 6 5 3 9 10 8 6 5 6 5 8 11 6 6 5 5 3 2 4 6 7 5 4 5 8 10 9 4 4 4 5 7 9 13 16 16 16 22 31 34 36 40 41 42
22 19 20 24 22 20 22 21 16 11 7 7 9 9 7 4 2 3 1 2 3 4 4 3 4 3 2 5 7 9 9 7 5 10 16 18 24 20 12 15 11 5 5 4 6 6 5 6 8 7 6 7 7 6 8 11 9 3 2 1 2 3 1 0 1 4 5 4 8 14 16 9 5 4 6 9 13 18 17 14 15 19 28 34 37 40 42 42
23 19 19 23 23 22 23 20 13 9 9 11 11 8 4 1 3 4 4 2 2 5 4 3 3 5 3 2 3 5 5 5 4 8 8 10 15 11 6 10 8 3 4 4 4 5 6 7 5 4 8 9 6 6 7 9 9 4 2 2 1 4 4 4 4 3 5 5 7 13 15 10 7 5 7 13 18 21 18 16 16 19 27 35 38 40 42 43
24 21 19 22 24 25 24 20 16 13 12 10 9 5 0 1 0 3 4 3 2 2 2 2 4 7 5 4 3 5 5 4 4 6 7 6 6 7 5 6 6 4 4 5 3 4 6 7 5 4 8 11 7 3 5 5 4 5 4 5 3 3 2 0 2 1 4 6 6 10 12 7 7 6 9 15 17 19 19 20 22 24 31 37 38 39 39 41
25 24 22 22 24 27 23 19 18 16 12 8 6 4 3 2 3 6 5 2 2 2 2 3 8 9 6 5 3 3 4 5 6 6 8 8 7 8 7 5 8 8 4 4 5 4 3 6 8 6 5 9 10 5 5 5 4 6 6 6 5 4 2 3 3 1 2 6 5 7 10 5 5 5 9 15 20 26 27 30 31 30 36 40 40 40 38 39
26 25 26 24 24 26 22 18 18 16 13 9 3 2 3 3 4 5 5 5 4 5 5 6 10 11 8 4 3 3 3 5 5 6 6 6 6 7 7 6 7 8 4 3 4 6 6 6 9 9 4 6 9 8 7 6 5 6 5 6 6 5 5 4 4 3 4 5 3 3 6 6 4 6 9 13 22 28 28 30 29 28 36 40 37 36 37 38
27 26 26 26 24 21 18 18 18 15 14 11 4 2 5 5 3 2 4 5 3 5 6 7 7 7 7 4 4 3 4 5 3 5 6 6 7 7 7 7 7 6 5 5 3 3 7 7 7 8 7 7 7 7 8 6 3 4 4 5 6 7 6 3 4 6 5 2 0 2 3 5 5 5 5 5 12 17 18 21 21 23 31 32 29 33 37 39
29 26 25 24 21 15 14 16 17 15 17 14 6 2 6 4 3 3 2 2 1 2 3 5 4 3 4 3 3 4 3 5 2 4 3 5 6 8 8 7 9 9 6 6 4 2 5 6 6 6 7 9 10 8 8 9 5 2 4 4 5 7 8 3 3 1 3 2 2 2 3 4 2 5 7 4 3 8 11 15 19 25 29 27 28 34 38 39
29 27 24 21 17 15 15 13 13 19 20 14 5 5 5 3 5 5 3 2 2 2 2 3 3 2 2 3 3 4 5 4 2 2 3 4 4 7 9 7 9 13 10 7 4 3 5 4 7 7 8 12 15 12 7 10 10 5 5 7 4 3 3 3 2 1 3 3 4 3 5 4 3 3 5 3 3 7 10 13 16 20 25 27 31 36 39 42
30 30 24 18 18 19 15 9 14 23 21 10 4 5 4 4 5 4 4 5 3 3 2 0 2 2 2 2 3 4 6 5 4 3 3 4 4 8 11 7 8 13 14 12 6 3 5 2 7 7 9 8 9 9 8 9 11 7 5 6 5 3 2 1 3 3 2 2 3 2 3 3 4 5 4 5 8 9 9 11 12 15 21 27 32 36 39 41
29 25 17 16 19 16 7 8 19 25 16 5 5 5 4 4 5 6 8 7 3 2 3 2 3 2 3 3 3 6 5 3 4 5 3 4 4 8 13 10 8 11 15 15 8 2 3 3 6 5 7 6 4 6 8 10 7 3 2 3 2 3 5 4 3 4 4 4 3 2 2 2 6 7 7 10 11 10 10 10 12 15 23 30 33 35 38 40
23 15 10 14 12 7 6 10 17 16 7 3 5 4 2 3 5 7 11 9 3 2 3 3 3 4 5 5 5 4 4 4 4 3 3 4 4 6 10 12 8 10 16 16 11 5 3 4 5 6 3 4 4 6 9 9 6 3 3 4 2 2 2 2 2 3 4 4 4 3 3 5 6 6 8 10 10 12 14 15 14 17 26 33 34 37 39 41
19 8 5 6 12 15 9 2 6 4 2 2 3 3 3 4 4 6 12 13 7 5 7 5 5 6 6 6 4 3 3 3 3 4 4 5 6 5 8 14 11 9 11 10 9 7 4 4 6 6 4 3 6 7 7 10 10 8 7 7 6 5 4 3 3 2 2 3 5 5 4 7 6 5 8 9 8 11 16 16 14 19 28 33 35 40 42 43
13 4 3 1 5 6 11 4 3 2 2 3 3 3 4 4 4 5 9 12 8 7 8 7 7 8 7 7 6 5 4 4 5 5 5 7 9 8 11 19 20 14 10 8 10 9 5 4 5 7 6 6 10 9 6 9 11 9 8 8 7 5 6 6 5 3 1 1 2 4 3 7 6 4 6 7 7 11 17 17 15 21 31 34 36 41 43 44
12 10 8 4 8 13 8 2 3 3 2 5 5 6 7 5 3 4 5 6 6 4 5 6 7 8 7 5 7 6 3 4 6 5 5 8 9 14 20 24 25 17 9 8 9 8 5 4 5 7 6 6 9 8 5 4 5 5 7 7 7 6 6 6 5 5 4 3 3 3 3 6 6 4 4 5 6 9 14 19 20 23 29 33 37 40 42 44
17 18 10 2 4 5 5 2 4 3 3 5 5 6 9 7 6 7 6 6 6 4 4 5 6 8 5 3 7 7 3 3 5 5 8 7 7 15 23 28 27 15 9 10 9 9 7 3 5 6 5 6 7 6 5 3 3 4 5 5 8 8 7 5 3 4 3 5 6 5 4 6 6 5 1 5 8 8 13 20 24 23 26 31 35 38 41 43
15 13 9 6 5 2 4 1 2 2 3 3 3 4 5 6 7 9 9 8 9 8 6 6 8 9 5 2 8 9 4 3 4 5 7 6 6 9 13 21 24 15 14 21 20 16 9 4 6 7 7 8 7 7 6 3 2 3 3 6 9 10 11 6 3 5 4 4 5 6 5 6 7 5 1 5 8 8 9 15 20 22 26 31 35 38 40 41
7 4 6 10 8 2 1 4 7 4 2 3 3 3 3 3 5 9 10 9 11 12 9 8 10 10 6 4 7 8 5 4 4 5 6 6 4 5 11 15 17 19 20 22 22 15 4 3 8 10 10 10 8 9 7 4 4 5 5 9 10 11 13 9 5 5 6 5 4 6 6 5 5 3 4 6 8 10 10 11 17 24 28 31 35 38 40 41
3 2 2 6 7 5 3 5 8 5 3 3 3 3 4 3 4 6 6 5 9 12 7 7 9 8 7 6 4 4 4 4 6 7 8 6 4 6 14 15 7 16 18 13 14 9 2 4 10 12 15 15 12 11 8 4 6 8 8 10 11 11 12 10 8 7 7 8 5 8 6 8 8 8 10 10 10 10 9 11 20 29 30 30 31 34 37 38
3 4 4 4 4 2 2 6 8 7 5 4 3 3 4 5 3 4 4 6 11 12 6 4 7 11 12 10 5 4 3 2 6 8 6 4 4 6 11 11 5 2 5 7 12 8 3 5 8 10 15 17 14 15 12 6 6 7 7 10 12 12 13 13 11 10 10 9 9 8 9 11 10 10 12 12 13 14 16 21 27 30 29 28 28 30 33 36
3 5 6 6 4 4 8 12 12 9 6 5 3 3 3 3 4 4 4 5 8 8 6 4 7 10 10 11 7 3 3 2 4 6 4 4 4 3 5 6 5 8 7 2 7 6 4 5 6 9 12 14 13 16 16 12 11 9 8 10 12 13 15 16 13 11 12 11 8 10 13 13 11 11 15 18 20 18 18 20 22 24 27 29 29 31 34 37
5 4 7 9 7 9 12 11 7 5 5 4 3 2 3 4 4 6 7 6 6 7 7 7 9 10 8 8 8 6 7 7 4 6 5 5 4 2 1 3 4 7 8 4 2 3 6 6 6 8 7 10 11 14 15 14 14 13 12 12 11 11 12 13 10 8 9 7 4 8 11 10 8 6 8 14 16 13 10 13 19 24 29 30 30 32 35 37
7 2 4 7 6 7 8 6 4 3 4 3 1 3 5 4 5 10 10 9 9 7 6 9 11 8 6 7 8 8 9 10 8 10 13 10 8 6 4 3 3 7 7 3 3 2 4 4 2 7 5 8 9 12 14 11 9 11 13 13 12 9 7 7 6 6 8 7 6 7 7 9 8 2 4 6 10 11 10 16 21 25 29 32 33 33 35 36
9 3 3 5 4 4 5 3 3 2 2 2 4 5 6 7 10 11 8 7 9 11 12 12 10 4 1 4 3 1 4 5 9 14 19 20 18 15 13 12 8 5 5 3 3 2 4 3 2 5 6 7 8 10 9 6 4 7 10 10 10 8 7 5 3 1 4 7 8 6 8 7 4 5 6 6 8 9 12 19 25 26 29 32 34 35 35 36
Wind_Direction
335 336 336 336 336 336 335 335 334 333 332 331 332 333 334 335 332 330 330 329 329 328 329 329 328 326 327 328 321 315 312 303 296 284 273 272 273 266 255 246 234 215 213 215 217 222 229 241 249 235 224 230 242 257 251 232 220 207 129 110 157 185 199 167 163 171 146 150 162 160 151 140 147 137 130 136 130 137 142 137 154 158 152 157 161 159 159 161
332 333 333 333 334 333 333 332 332 332 330 330 330 331 332 333 332 330 329 329 328 328 328 330 330 327 327 328 322 315 313 310 301 283 274 274 264 248 232 225 220 209 208 212 217 222 229 239 236 223 224 230 231 212 213 219 194 177 121 132 207 196 208 172 154 159 147 150 157 160 156 146 144 141 140 139 134 140 128 124 137 131 140 153 158 159 162 163
329 330 330 331 331 331 331 330 329 329 328 328 328 328 330 330 330 329 328 329 328 327 328 331 331 328 328 327 322 316 319 319 303 288 274 255 247 242 226 214 209 204 205 208 215 223 228 236 230 219 222 238 241 218 196 182 187 198 163 168 238 205 208 170 153 158 153 150 152 158 158 144 143 146 146 144 143 149 142 142 143 138 146 153 159 163 164 166
327 326 327 328 328 328 328 327 326 326 326 326 325 327 327 327 328 327 327 328 327 327 328 332 332 330 330 327 323 317 326 324 302 285 247 233 251 251 233 214 204 201 201 204 212 217 222 233 236 232 237 252 240 222 193 176 189 198 178 197 222 179 177 174 158 156 152 151 152 153 151 140 145 148 148 145 140 162 171 163 159 155 156 157 162 165 165 169
324 324 325 324 325 325 325 325 324 324 324 323 323 323 325 326 326 325 326 326 327 327 327 331 331 332 330 327 322 317 333 336 301 202 212 269 281 262 238 216 204 198 198 203 209 212 220 233 241 233 222 241 218 211 201 191 189 193 214 213 192 162 169 178 159 153 153 151 149 149 148 147 150 152 155 153 153 186 182 173 166 161 162 163 165 166 168 171
321 321 321 321 322 322 322 322 321 322 321 321 321 321 323 323 323 324 323 325 326 326 327 329 330 331 330 328 320 314 325 285 267 314 273 280 284 268 240 216 204 196 197 203 207 212 220 230 230 196 171 206 234 218 220 207 195 212 241 218 188 177 172 169 157 154 154 148 148 153 153 151 149 156 165 165 171 179 177 174 169 166 165 165 166 168 171 173
319 319 319 319 319 319 319 319 319 319 319 319 319 319 320 321 322 321 320 323 324 325 326 326 327 328 329 326 319 311 285 265 283 303 266 264 272 264 230 210 201 197 197 202 206 210 218 217 194 172 149 180 255 234 260 309 232 214 243 204 181 178 166 160 156 155 154 150 152 153 150 153 152 158 171 174 173 168 170 172 170 167 165 165 168 171 174 176
318 317 317 316 316 316 316 316 316 316 316 317 317 317 318 320 320 318 319 320 322 324 324 325 325 324 325 324 320 312 285 276 291 281 241 243 256 253 215 200 197 198 199 202 205 210 212 203 188 174 153 183 266 274 324 336 288 216 218 180 167 163 154 153 150 149 148 143 143 140 142 156 155 152 165 171 160 162 165 167 166 164 164 166 170 173 176 178
317 316 315 315 315 314 314 314 313 313 313 314 314 315 316 318 318 316 317 317 320 321 321 323 320 320 321 318 322 314 288 283 301 278 237 224 233 242 207 196 194 197 202 204 206 213 209 197 200 194 196 233 270 283 23 27 283 232 177 157 145 141 147 148 142 140 137 133 131 124 117 138 146 140 135 161 158 161 162 161 163 163 165 168 171 175 179 180
318 316 315 314 313 313 313 312 312 311 310 310 311 312 314 315 315 315 315 317 318 318 319 319 317 317 313 308 317 303 284 291 313 290 213 207 216 192 197 198 199 199 203 206 208 214 204 186 190 190 227 285 247 294 41 97 268 232 150 137 138 139 147 144 135 132 128 131 130 120 110 131 142 139 120 162 158 159 158 158 164 165 167 170 173 177 181 183
318 318 316 314 313 312 311 311 310 309 308 307 308 309 311 313 313 313 314 316 316 316 317 314 313 311 304 295 268 256 275 284 304 300 200 199 200 190 205 207 210 208 207 209 211 215 204 187 181 173 239 263 300 327 336 315 297 174 135 110 130 134 142 140 134 133 124 126 130 121 110 125 140 151 154 160 159 160 157 158 165 167 171 173 176 179 183 187
319 318 316 315 314 313 311 310 309 307 306 305 305 306 309 311 311 312 314 316 316 316 314 312 309 303 299 286 265 269 285 276 280 277 220 197 197 206 229 234 230 224 220 219 219 219 213 210 213 229 247 273 340 340 308 333 2 148 132 104 121 114 136 143 141 142 129 130 133 121 98 107 161 159 156 158 159 161 158 159 167 169 173 175 178 181 185 189
319 318 317 316 315 314 313 311 309 307 304 303 302 304 307 308 309 311 313 314 315 315 313 309 303 295 293 279 278 290 293 274 261 247 217 199 200 204 221 234 240 239 237 236 235 229 223 228 231 245 263 287 315 299 311 352 100 142 126 119 128 98 157 167 153 144 129 143 142 126 111 225 259 157 156 159 159 159 159 163 168 172 176 177 181 184 187 190
320 318 317 316 316 315 314 313 310 307 304 302 301 302 305 306 308 310 311 313 314 315 313 307 299 296 285 278 291 301 288 264 243 229 212 206 205 202 219 227 231 235 241 243 239 233 232 240 243 252 268 272 269 296 324 26 110 127 90 99 135 130 185 221 179 143 126 161 153 123 127 196 208 160 159 162 163 162 163 168 171 174 177 179 183 187 190 192
321 319 318 316 316 315 315 315 313 309 305 303 301 303 305 305 307 309 311 313 313 314 318 316 307 301 287 286 298 302 272 251 232 225 216 214 215 214 222 226 227 227 234 234 225 226 225 235 246 246 268 268 263 300 358 37 73 124 120 152 207 151 174 233 217 164 146 176 175 98 104 183 173 169 166 165 168 167 167 173 175 176 179 181 185 188 191 194
322 321 319 318 317 316 316 316 314 311 308 307 306 305 306 306 308 309 313 317 318 325 339 326 309 307 295 289 300 307 270 246 224 225 225 230 234 226 222 229 231 222 220 216 212 220 217 233 253 241 246 249 211 133 58 46 98 197 162 171 195 157 163 196 223 214 168 166 192 105 132 173 169 175 172 169 172 171 171 177 178 180 182 184 187 190 192 194
322 322 321 320 319 318 318 316 314 311 309 312 310 307 310 310 309 309 318 333 336 336 331 312 302 302 279 269 286 306 324 309 242 232 236 243 244 239 233 233 230 214 203 202 212 226 224 232 244 230 227 207 144 116 81 70 150 215 224 165 191 165 164 172 202 230 197 164 176 143 151 172 169 172 173 174 176 174 176 179 181 184 185 188 190 191 194 195
321 321 321 320 320 320 321 320 316 310 310 314 314 314 316 312 309 308 319 336 329 325 318 298 293 308 275 272 291 286 303 315 301 279 272 265 247 240 240 236 223 204 195 204 221 223 219 227 197 190 210 147 130 117 147 194 169 189 192 174 196 173 174 182 181 195 192 176 162 146 159 168 160 168 175 178 178 178 181 181 183 186 187 189 191 192 195 197
320 320 319 319 319 320 321 321 318 313 312 314 315 317 319 316 312 311 323 323 318 310 298 273 254 274 277 285 288 276 288 303 301 285 282 284 254 232 230 234 221 199 180 176 220 204 192 206 161 178 197 182 177 156 180 202 174 175 190 179 176 179 189 191 182 172 170 167 160 163 165 162 164 172 178 180 182 184 184 183 184 187 188 189 190 192 194 197
319 319 318 317 318 319 321 321 318 317 317 316 319 324 335 339 333 334 324 311 300 290 283 275 268 265 269 278 278 278 290 295 294 277 270 289 264 227 220 225 217 199 175 147 194 189 171 183 226 196 187 186 195 192 191 191 169 161 181 207 185 180 197 199 186 171 164 159 185 182 162 163 172 178 181 180 183 187 186 186 187 188 190 189 190 193 194 198
320 319 318 317 316 317 319 320 317 317 319 319 323 336 3 5 357 332 322 308 297 291 285 284 279 268 268 273 271 276 288 291 289 273 257 274 263 225 215 216 201 202 197 163 171 179 165 184 226 214 187 181 200 201 183 172 167 158 162 213 206 192 197 195 178 171 166 156 187 184 161 174 179 179 182 179 182 191 189 188 190 191 192 192 193 195 198 201
321 320 318 317 316 317 318 318 316 316 319 319 324 343 15 10 358 320 317 301 294 294 286 285 279 268 270 270 268 269 268 271 279 268 249 256 249 219 201 196 184 209 200 161 168 198 195 209 222 220 183 169 202 184 168 188 186 177 151 144 203 243 183 155 176 175 169 157 180 178 173 186 186 182 185 185 189 195 192 191 192 193 193 193 195 197 199 202
321 320 318 318 317 317 318 318 315 314 318 320 326 341 352 340 337 319 312 282 292 294 280 275 268 262 263 262 262 257 232 230 256 256 246 240 228 211 194 173 182 206 187 176 187 184 209 236 220 210 159 158 206 171 151 181 207 186 166 147 192 230 172 169 195 178 168 146 156 160 159 184 185 191 203 201 200 200 197 197 196 195 196 197 200 200 199 200
321 319 317 318 317 316 319 317 314 313 315 322 324 325 327 326 326 325 319 274 288 291 281 279 267 257 256 255 255 232 213 221 233 248 247 228 213 208 200 178 171 204 211 191 190 189 228 253 204 177 160 166 200 190 149 153 240 249 197 182 183 194 197 182 157 157 124 32 103 111 57 333 198 198 219 214 211 213 206 203 202 202 202 202 202 202 201 202
321 319 318 319 317 316 318 318 316 312 314 319 314 308 328 324 317 324 326 295 283 286 291 290 263 255 255 250 239 210 206 221 229 245 242 223 213 199 193 193 178 209 219 184 178 197 239 247 179 164 188 182 192 208 172 161 197 280 232 200 193 198 194 138 129 139 126 306 180 137 131 282 242 207 215 213 213 219 212 206 209 208 207 206 203 203 204 204
321 320 319 319 316 316 318 319 316 312 319 320 301 311 315 289 304 322 346 15 296 277 296 284 244 265 260 232 212 192 190 228 234 242 236 228 220 197 184 194 179 204 199 172 185 202 223 226 179 168 197 190 196 218 196 164 158 248 238 200 196 209 191 148 144 153 168 206 205 173 172 244 253 221 216 210 214 219 214 211 215 212 208 206 204 205 205 204
321 321 319 316 316 318 318 318 314 315 323 313 295 308 293 268 295 317 15 7 306 262 231 217 222 303 308 225 192 173 163 233 230 236 232 231 216 198 198 201 170 201 178 148 219 222 179 203 206 189 189 191 203 219 191 155 143 231 225 170 183 212 200 165 160 172 184 154 169 186 154 115 217 224 207 198 213 224 224 222 218 214 211 208 206 206 206 205
320 321 317 311 313 316 313 311 312 317 318 299 297 303 287 277 271 236 69 0 286 273 233 231 242 265 297 206 181 172 159 184 199 227 228 232 211 192 196 198 172 193 193 168 222 257 181 197 212 191 188 205 208 212 175 149 161 236 209 158 183 212 205 178 171 188 184 133 168 210 169 126 245 249 184 183 209 224 227 226 218 214 212 209 206 207 207 207
317 320 314 306 307 307 304 304 308 315 310 292 298 300 291 276 244 120 84 251 291 309 257 273 296 269 229 165 182 186 179 178 185 207 213 219 208 194 196 198 176 185 216 192 207 256 232 205 204 184 193 211 215 216 163 154 194 229 180 150 150 194 207 186 179 181 153 162 196 201 188 192 261 258 164 173 209 224 227 226 220 214 212 210 207 207 207 207
314 316 311 303 302 302 298 298 306 316 307 295 302 300 292 260 174 99 118 243 299 289 275 317 332 308 141 143 197 204 189 210 226 186 191 198 197 197 196 197 187 176 226 220 201 228 267 245 211 185 195 197 209 219 168 173 204 194 98 129 49 21 1 118 136 117 127 203 218 200 192 192 231 244 186 182 205 214 218 222 219 213 212 212 209 207 206 205
311 311 306 300 300 300 294 295 307 306 291 297 305 300 282 254 102 124 201 246 298 281 312 335 344 4 29 158 224 218 201 230 211 168 177 185 190 195 180 188 190 171 218 239 234 242 257 257 246 205 198 186 194 222 187 187 202 172 112 175 278 331 11 29 11 78 160 224 239 210 197 194 219 241 210 204 211 212 212 213 210 205 209 210 209 208 205 204
310 306 299 294 294 291 288 293 301 293 288 297 304 308 239 168 54 195 220 344 321 260 9 325 324 2 343 312 276 217 212 221 188 167 177 167 177 199 186 181 180 177 223 222 227 257 233 238 267 270 223 193 181 213 205 192 174 150 142 144 180 278 348 22 251 179 202 237 242 199 184 199 235 239 215 210 216 218 214 214 210 202 204 208 207 206 205 203
310 306 298 291 288 285 284 289 286 281 285 286 291 344 80 156 229 217 223 281 249 227 41 322 324 344 341 335 313 239 232 226 193 177 189 172 167 198 211 208 176 169 197 194 192 217 234 262 256 253 254 206 188 191 210 204 164 157 164 161 174 182 170 225 238 264 245 256 256 182 167 204 273 263 220 207 216 219 214 215 215 205 202 207 206 204 203 202
309 308 301 292 288 288 289 285 272 266 262 249 252 49 118 205 240 223 225 237 269 327 350 339 332 332 332 325 266 229 226 241 204 172 185 172 169 200 217 227 193 167 154 164 188 189 195 244 233 218 229 196 194 202 190 171 167 179 164 154 174 170 172 212 214 199 222 249 275 137 155 193 216 233 222 211 221 224 217 218 217 207 206 208 205 200 200 202
311 309 301 298 296 294 291 274 258 249 232 207 147 113 189 222 246 226 234 232 268 312 309 320 320 310 312 292 253 229 213 239 205 162 184 179 180 197 198 211 208 176 153 175 209 187 195 233 244 230 225 193 196 208 176 158 207 214 137 137 193 187 173 201 198 185 188 204 232 142 191 217 211 257 285 244 229 223 212 213 209 202 206 206 199 197 200 202
313 309 303 304 304 299 292 269 248 231 206 175 133 196 211 222 220 200 223 189 170 282 308 328 306 279 310 296 310 344 284 252 194 156 211 204 196 199 196 203 200 187 174 183 213 181 182 242 260 226 230 220 207 199 178 179 200 182 138 186 216 176 156 171 227 194 124 162 236 195 221 272 262 283 316 342 202 188 181 193 197 196 197 196 195 197 200 202
319 317 313 314 313 309 302 279 237 208 188 164 156 216 209 232 224 213 269 327 299 292 24 14 312 301 312 291 310 353 350 316 258 193 227 226 217 205 204 213 197 192 189 178 212 213 162 251 269 206 220 236 216 212 217 195 182 178 201 204 187 129 122 130 181 45 88 191 251 195 193 222 195 233 307 351 156 179 179 183 191 191 187 191 197 199 201 203
325 323 320 319 320 316 305 271 208 186 173 160 200 220 202 227 226 221 289 329 331 335 27 15 263 265 252 270 305 323 346 337 299 279 236 226 240 206 196 209 201 195 194 186 206 247 166 241 286 218 205 228 208 207 245 228 203 207 214 181 152 164 222 158 173 181 158 205 255 253 220 208 194 215 246 212 190 190 185 177 180 182 184 193 199 200 202 204
329 326 324 326 326 321 298 204 180 170 159 157 212 217 215 232 259 272 282 297 305 316 312 236 216 253 264 266 294 308 316 281 272 298 260 217 248 219 194 196 204 196 192 187 192 225 166 195 276 253 207 204 177 183 223 237 227 207 151 163 151 166 181 180 171 166 176 196 216 268 287 238 225 216 202 204 195 175 168 174 182 186 188 194 198 200 201 203
334 328 324 337 353 35 95 148 165 165 159 184 198 209 242 241 263 275 273 272 249 238 257 224 218 252 269 263 258 273 279 251 239 264 254 222 250 255 210 196 202 197 191 190 189 191 177 183 232 279 268 204 202 205 207 213 211 185 192 206 194 137 150 175 180 145 150 166 174 201 249 257 249 211 193 203 189 169 172 179 187 189 189 194 198 200 201 203
345 334 324 19 81 79 54 108 179 186 190 213 211 221 250 248 253 279 280 275 263 246 251 248 246 254 268 271 254 232 260 275 241 237 264 241 228 252 225 206 203 190 180 189 196 193 189 181 211 255 270 222 238 239 205 193 190 184 197 206 189 162 133 158 228 245 123 158 172 171 219 261 257 204 197 201 181 178 183 181 183 185 187 193 197 201 204 205
351 328 300 95 105 357 334 313 250 252 197 230 250 235 252 263 259 269 276 274 267 247 245 246 247 252 257 260 253 239 250 278 268 242 241 238 227 228 223 212 208 194 166 182 206 193 165 150 195 236 244 233 243 248 223 205 199 193 202 201 178 158 141 156 204 231 205 200 140 129 198 261 261 214 206 207 190 189 187 180 178 184 188 191 196 201 205 208
335 308 296 271 282 294 293 264 276 262 227 265 275 270 267 261 256 266 268 269 263 243 238 238 238 240 237 246 261 260 254 258 253 245 260 264 248 238 228 213 207 200 172 181 202 190 166 141 180 229 262 266 261 269 267 227 190 200 228 201 172 180 170 161 176 177 182 200 141 130 230 261 276 264 225 204 186 182 185 184 183 185 188 192 195 200 205 208
322 308 297 310 328 277 223 221 264 242 254 276 276 279 272 258 254 259 250 236 231 233 251 247 236 235 229 258 273 275 305 281 260 276 284 279 265 256 241 218 208 200 181 189 181 171 191 180 158 199 244 262 268 278 282 276 170 188 230 201 187 188 163 139 124 136 188 212 163 158 226 248 276 309 7 156 163 175 188 189 189 187 187 191 195 200 204 207
324 310 294 323 350 237 208 68 27 278 293 303 295 287 278 268 260 262 266 262 250 244 252 260 254 248 237 264 279 284 301 278 283 307 290 279 286 288 267 234 218 202 196 196 176 161 183 193 160 183 212 221 225 229 234 240 197 199 214 197 195 182 166 161 131 141 201 227 157 161 212 252 288 324 34 166 167 180 196 191 192 193 190 192 196 199 203 206
328 313 303 324 339 331 225 53 50 18 334 355 326 268 255 268 273 284 288 273 258 249 238 244 255 253 238 227 264 286 289 264 286 303 288 289 287 292 310 287 237 215 217 201 170 154 159 188 183 189 204 210 209 219 219 170 164 204 205 199 202 192 180 165 131 163 186 165 177 210 197 205 267 267 210 203 183 185 195 187 192 200 199 196 196 199 202 205
299 306 347 339 332 340 1 36 41 22 306 309 310 260 276 287 285 301 291 273 291 291 263 232 237 234 216 201 209 234 250 285 309 296 278 281 283 287 314 320 251 219 235 210 166 150 113 189 196 194 206 213 208 215 215 154 174 207 202 197 202 199 186 171 171 187 160 142 220 250 191 176 220 220 204 210 203 196 198 192 196 202 203 198 196 198 201 203
268 320 2 358 313 316 4 339 339 333 295 290 281 244 272 283 293 316 296 299 312 305 279 240 249 240 217 192 172 189 201 328 317 297 280 275 306 317 321 334 4 342 284 207 177 158 134 210 204 194 211 219 216 220 222 204 204 216 209 205 201 192 185 187 193 182 155 168 219 223 181 186 211 209 201 204 200 198 202 201 200 201 201 199 197 197 198 202
282 306 328 340 319 284 289 297 303 307 301 298 274 243 272 302 309 314 308 317 314 295 283 283 281 271 235 193 170 157 142 127 286 281 286 298 302 323 328 314 334 11 9 253 195 167 172 225 200 187 216 226 218 224 230 230 234 238 232 222 211 197 189 193 197 178 170 191 202 178 181 201 210 201 202 206 201 198 197 194 194 197 200 200 199 199 200 203
345 317 322 334 322 287 284 290 300 309 306 296 258 268 329 323 315 326 317 298 286 286 299 294 282 292 278 216 180 157 158 163 208 250 265 302 303 285 291 267 281 335 347 329 280 201 205 223 187 167 212 236 221 221 227 229 234 239 239 234 222 207 198 201 197 176 178 198 170 152 180 216 239 215 197 197 189 178 170 177 188 198 201 200 200 201 204 206
354 322 312 324 303 280 290 303 317 308 292 288 287 345 348 327 319 327 310 279 266 268 291 299 286 286 280 233 187 156 159 163 187 238 251 256 257 249 252 257 300 332 327 316 316 264 210 232 185 147 184 236 222 216 222 221 225 240 247 244 228 202 194 205 192 175 185 177 125 121 174 228 247 211 122 150 162 162 171 182 190 197 199 199 200 201 204 207
2 357 325 326 286 284 313 321 318 296 266 331 359 348 326 303 309 317 305 299 305 299 303 307 298 294 268 235 211 312 306 241 219 248 260 259 255 253 256 262 264 274 280 284 299 243 171 180 199 153 182 237 226 199 196 186 197 242 247 234 217 188 166 155 124 150 185 156 136 157 204 223 206 147 145 161 167 173 186 188 190 192 193 194 197 198 202 204
Height
1527 1526 1525 1524 1523 1522 1520 1519 1518 1516 1515 1513 1512 1510 1509 1507 1505 1504 1502 1500 1500 1498 1497 1496 1495 1493 1491 1490 1488 1486 1485 1484 1483 1481 1478 1476 1478 1479 1478 1480 1482 1483 1484 1485 1486 1486 1487 1488 1490 1491 1492 1492 1493 1492 1493 1493 1493 1495 1499 1507 1511 1512 1509 1502 1504 1506 1505 1509 1509 1509 1507 1508 1514 1518 1518 1521 1523 1523 1526 1528 1529 1530 1531 1533 1534 1536 1538 1540
1526 1525 1523 1522 1522 1520 1519 1518 1517 1515 1514 1512 1511 1509 1508 1506 1505 1503 1501 1499 1498 1497 1496 1495 1494 1492 1490 1489 1486 1485 1483 1482 1480 1477 1474 1474 1475 1475 1475 1477 1479 1480 1481 1482 1484 1484 1486 1487 1488 1489 1490 1490 1490 1490 1491 1491 1491 1494 1500 1508 1509 1505 1500 1494 1496 1498 1499 1505 1507 1508 1507 1506 1510 1514 1517 1521 1524 1525 1526 1529 1531 1532 1532 1534 1536 1537 1539 1540
1525 1524 1522 1521 1520 1519 1518 1517 1516 1514 1513 1511 1510 1508 1507 1505 1504 1502 1500 1498 1497 1495 1494 1493 1492 1491 1489 1487 1485 1483 1481 1479 1476 1472 1471 1472 1472 1471 1472 1473 1475 1478 1479 1481 1482 1483 1485 1486 1487 1488 1489 1489 1489 1489 1489 1490 1491 1491 1497 1507 1503 1496 1494 1491 1493 1495 1496 1500 1503 1508 1508 1507 1509 1512 1516 1519 1523 1525 1525 1526 1528 1531 1532 1533 1535 1537 1539 1541
1524 1523 1521 1520 1519 1518 1517 1516 1514 1513 1512 1510 1509 1507 1506 1504 1503 1501 1499 1498 1496 1494 1493 1492 1491 1489 1488 1486 1485 1483 1480 1478 1472 1469 1469 1470 1470 1470 1470 1471 1473 1475 1477 1479 1480 1482 1483 1484 1486 1487 1488 1488 1488 1488 1488 1488 1490 1490 1493 1500 1495 1491 1494 1492 1492 1494 1495 1498 1501 1506 1509 1510 1511 1513 1516 1518 1525 1528 1524 1521 1521 1525 1530 1531 1534 1536 1538 1540
1523 1521 1520 1519 1518 1516 1515 1514 1513 1512 1510 1509 1507 1506 1504 1503 1501 1500 1498 1497 1495 1493 1491 1491 1489 1488 1487 1485 1484 1481 1482 1480 1471 1467 1469 1469 1469 1468 1468 1470 1471 1473 1476 1477 1478 1480 1481 1482 1484 1486 1487 1487 1488 1489 1487 1485 1487 1490 1489 1489 1488 1489 1493 1491 1491 1494 1496 1498 1501 1504 1508 1510 1511 1513 1515 1515 1520 1522 1520 1520 1520 1522 1526 1529 1531 1535 1537 1539
1522 1520 1519 1518 1516 1515 1514 1513 1511 1510 1509 1508 1506 1505 1503 1502 1500 1499 1497 1495 1494 1492 1490 1489 1488 1487 1485 1484 1483 1481 1483 1480 1470 1468 1469 1468 1468 1467 1466 1468 1470 1472 1473 1475 1476 1478 1480 1481 1483 1485 1486 1486 1488 1488 1486 1484 1486 1491 1488 1483 1485 1487 1489 1490 1491 1493 1496 1498 1500 1503 1505 1507 1510 1513 1514 1512 1512 1513 1515 1520 1521 1522 1524 1527 1530 1533 1535 1537
1520 1519 1518 1516 1515 1514 1512 1511 1510 1509 1508 1506 1505 1503 1502 1501 1499 1497 1495 1494 1493 1491 1489 1487 1486 1485 1484 1483 1481 1480 1480 1474 1467 1468 1467 1466 1467 1465 1465 1466 1468 1471 1471 1473 1474 1476 1478 1479 1482 1483 1485 1487 1486 1485 1484 1483 1483 1488 1487 1480 1482 1484 1485 1488 1490 1493 1495 1496 1499 1501 1504 1506 1508 1512 1515 1514 1514 1514 1517 1521 1523 1525 1526 1529 1531 1532 1534 1536
1519 1518 1516 1515 1513 1512 1511 1510 1508 1507 1506 1504 1503 1502 1500 1499 1497 1496 1494 1493 1491 1490 1488 1486 1485 1483 1483 1482 1480 1479 1476 1470 1466 1467 1465 1465 1465 1464 1464 1465 1467 1469 1470 1472 1472 1475 1477 1478 1481 1482 1484 1486 1485 1483 1482 1483 1482 1483 1482 1479 1479 1482 1485 1488 1490 1492 1494 1496 1499 1501 1504 1506 1507 1510 1514 1516 1517 1517 1518 1522 1525 1527 1529 1530 1531 1533 1535 1536
1518 1517 1515 1513 1512 1511 1509 1508 1507 1505 1504 1503 1502 1500 1499 1497 1496 1494 1493 1491 1490 1489 1487 1485 1483 1482 1481 1480 1480 1478 1471 1467 1466 1466 1465 1464 1464 1464 1464 1464 1466 1468 1469 1471 1472 1474 1476 1478 1480 1480 1483 1483 1483 1482 1481 1486 1485 1478 1478 1478 1479 1482 1485 1488 1490 1492 1494 1496 1497 1501 1505 1507 1508 1511 1517 1518 1517 1519 1520 1523 1526 1527 1530 1531 1532 1534 1535 1536
1517 1515 1514 1512 1510 1509 1507 1506 1505 1503 1502 1501 1500 1499 1497 1496 1494 1492 1491 1490 1488 1487 1485 1484 1482 1480 1479 1478 1480 1477 1468 1465 1466 1465 1464 1464 1464 1464 1464 1465 1466 1467 1468 1470 1471 1473 1475 1477 1479 1479 1481 1480 1481 1482 1481 1487 1484 1476 1477 1479 1479 1483 1486 1488 1490 1492 1494 1496 1496 1501 1507 1508 1508 1512 1518 1520 1519 1520 1521 1524 1526 1528 1529 1531 1533 1534 1535 1537
1515 1514 1512 1511 1509 1508 1506 1504 1503 1502 1500 1499 1498 1497 1495 1494 1492 1491 1489 1488 1486 1485 1483 1482 1480 1478 1477 1476 1478 1474 1466 1465 1465 1464 1464 1464 1464 1464 1465 1466 1466 1467 1468 1469 1470 1472 1475 1477 1478 1479 1481 1480 1481 1481 1480 1481 1478 1475 1478 1482 1484 1485 1488 1489 1490 1492 1493 1497 1497 1498 1507 1510 1510 1512 1514 1517 1519 1520 1521 1524 1527 1528 1530 1531 1533 1534 1536 1537
1513 1512 1510 1509 1508 1506 1504 1503 1501 1500 1498 1497 1496 1495 1494 1492 1490 1489 1487 1486 1484 1483 1481 1479 1478 1476 1475 1474 1472 1468 1465 1465 1464 1463 1463 1463 1463 1464 1465 1465 1466 1467 1467 1468 1470 1473 1475 1477 1477 1478 1480 1480 1481 1482 1481 1478 1476 1476 1478 1487 1493 1490 1493 1492 1490 1491 1491 1497 1497 1497 1512 1516 1513 1513 1512 1514 1518 1520 1521 1524 1527 1528 1530 1531 1532 1534 1536 1537
1512 1510 1508 1507 1505 1504 1503 1501 1499 1498 1496 1495 1494 1493 1492 1490 1488 1487 1485 1484 1482 1480 1478 1476 1475 1474 1474 1469 1464 1463 1464 1463 1462 1462 1462 1462 1463 1463 1464 1464 1465 1466 1467 1468 1471 1473 1475 1476 1476 1478 1478 1478 1480 1481 1480 1476 1476 1481 1481 1488 1497 1502 1503 1495 1492 1493 1491 1496 1494 1496 1520 1525 1515 1512 1512 1514 1517 1520 1523 1524 1527 1529 1530 1531 1533 1534 1535 1536
1511 1509 1507 1505 1504 1502 1501 1499 1498 1496 1494 1493 1492 1491 1489 1488 1487 1485 1484 1482 1480 1478 1476 1474 1473 1473 1472 1465 1460 1462 1462 1461 1460 1461 1462 1462 1462 1462 1463 1463 1464 1465 1465 1467 1471 1473 1474 1475 1476 1477 1477 1477 1478 1478 1480 1479 1480 1487 1490 1493 1499 1509 1510 1497 1493 1494 1495 1499 1492 1496 1520 1524 1515 1513 1512 1514 1516 1518 1522 1524 1526 1528 1529 1531 1532 1533 1534 1535
1510 1508 1506 1504 1502 1501 1499 1498 1496 1493 1492 1491 1490 1489 1487 1486 1485 1483 1482 1480 1478 1476 1473 1473 1472 1472 1470 1462 1458 1460 1459 1459 1459 1460 1462 1462 1461 1462 1462 1463 1463 1464 1465 1467 1470 1472 1473 1474 1475 1475 1476 1476 1477 1480 1484 1487 1487 1490 1501 1508 1504 1506 1510 1500 1494 1493 1494 1498 1493 1499 1519 1522 1515 1513 1512 1514 1516 1517 1520 1522 1525 1526 1528 1529 1531 1532 1533 1534
1508 1507 1505 1503 1501 1500 1498 1496 1494 1491 1490 1489 1488 1487 1485 1484 1483 1481 1480 1477 1476 1474 1473 1472 1471 1472 1470 1461 1457 1459 1458 1458 1459 1461 1462 1461 1461 1462 1462 1462 1462 1463 1465 1467 1469 1470 1472 1472 1473 1474 1475 1476 1477 1482 1489 1495 1498 1496 1502 1512 1508 1506 1510 1505 1497 1491 1489 1494 1495 1500 1515 1520 1513 1511 1512 1513 1515 1516 1518 1521 1522 1525 1526 1527 1529 1530 1531 1533
1506 1505 1503 1502 1500 1499 1497 1495 1492 1489 1488 1487 1486 1484 1483 1482 1480 1479 1478 1476 1475 1474 1473 1472 1471 1471 1466 1458 1457 1458 1458 1458 1460 1461 1461 1461 1461 1461 1461 1461 1461 1463 1465 1467 1469 1469 1471 1471 1472 1474 1474 1475 1477 1482 1494 1505 1507 1503 1502 1507 1505 1503 1507 1508 1502 1494 1490 1493 1497 1500 1507 1511 1507 1506 1510 1511 1513 1515 1516 1519 1520 1522 1524 1525 1527 1529 1530 1531
1504 1503 1501 1500 1498 1497 1495 1494 1491 1488 1486 1486 1484 1482 1481 1480 1478 1477 1476 1475 1474 1473 1472 1470 1471 1472 1463 1455 1456 1457 1457 1458 1458 1458 1459 1460 1460 1460 1460 1460 1460 1463 1465 1467 1468 1468 1470 1469 1470 1475 1476 1477 1478 1483 1497 1504 1502 1503 1504 1505 1504 1502 1502 1503 1499 1492 1492 1495 1499 1503 1507 1507 1505 1505 1508 1510 1511 1513 1514 1516 1518 1519 1521 1523 1525 1527 1528 1529
1503 1501 1499 1497 1496 1495 1494 1492 1490 1487 1485 1484 1483 1481 1480 1478 1476 1475 1474 1473 1472 1472 1471 1469 1469 1471 1464 1455 1454 1455 1455 1457 1456 1456 1457 1458 1459 1459 1459 1459 1460 1462 1464 1467 1468 1466 1468 1470 1472 1478 1480 1480 1479 1481 1487 1489 1489 1494 1497 1498 1500 1503 1500 1494 1490 1485 1487 1497 1502 1503 1505 1507 1506 1507 1507 1509 1511 1512 1513 1514 1515 1517 1518 1520 1522 1524 1526 1527
1502 1500 1498 1496 1495 1494 1492 1491 1488 1486 1484 1482 1482 1480 1479 1477 1475 1474 1472 1469 1469 1469 1468 1466 1465 1465 1462 1455 1453 1454 1454 1455 1455 1454 1455 1456 1458 1457 1457 1459 1459 1460 1462 1465 1467 1464 1466 1474 1476 1476 1478 1477 1475 1475 1476 1478 1482 1487 1492 1495 1494 1496 1497 1491 1487 1484 1483 1496 1503 1500 1502 1504 1504 1504 1503 1506 1509 1510 1512 1513 1513 1514 1515 1517 1519 1521 1523 1524
1500 1498 1496 1494 1493 1492 1491 1489 1487 1485 1484 1482 1481 1480 1480 1480 1480 1479 1472 1463 1461 1465 1464 1460 1461 1459 1456 1454 1452 1454 1455 1454 1453 1452 1453 1455 1456 1457 1456 1457 1459 1462 1462 1462 1464 1463 1466 1475 1474 1469 1470 1471 1470 1471 1473 1476 1480 1484 1489 1494 1495 1495 1493 1488 1486 1485 1483 1494 1503 1501 1503 1504 1501 1502 1502 1504 1507 1507 1507 1509 1510 1510 1511 1513 1515 1517 1520 1521
1499 1496 1494 1493 1491 1490 1489 1487 1486 1484 1483 1482 1481 1481 1482 1482 1483 1482 1478 1464 1453 1457 1460 1455 1456 1453 1450 1451 1449 1453 1457 1454 1451 1449 1450 1453 1454 1455 1454 1455 1459 1462 1461 1461 1465 1468 1471 1473 1468 1463 1465 1468 1470 1471 1474 1476 1479 1483 1487 1492 1498 1495 1492 1490 1487 1485 1486 1494 1502 1502 1505 1506 1501 1501 1501 1501 1501 1501 1502 1504 1505 1507 1509 1511 1512 1514 1516 1519
1497 1494 1493 1491 1489 1489 1487 1486 1485 1483 1482 1481 1481 1481 1481 1481 1481 1479 1480 1472 1452 1447 1452 1449 1448 1446 1443 1445 1445 1448 1453 1452 1450 1447 1448 1451 1451 1452 1453 1454 1459 1460 1461 1462 1466 1472 1474 1469 1461 1460 1463 1468 1472 1473 1475 1478 1479 1482 1486 1491 1496 1492 1494 1497 1492 1489 1489 1493 1500 1503 1507 1508 1505 1505 1503 1501 1500 1500 1502 1503 1504 1505 1506 1507 1508 1510 1512 1515
1495 1493 1492 1489 1488 1487 1485 1485 1483 1482 1482 1481 1480 1480 1479 1479 1479 1477 1476 1473 1457 1442 1442 1442 1440 1438 1436 1438 1441 1444 1446 1446 1447 1444 1445 1448 1448 1451 1451 1452 1458 1460 1461 1461 1463 1469 1469 1461 1456 1458 1463 1467 1472 1474 1476 1480 1483 1482 1482 1487 1491 1488 1489 1493 1491 1491 1493 1496 1498 1504 1516 1516 1509 1511 1508 1502 1503 1502 1502 1503 1504 1505 1504 1504 1506 1508 1509 1511
1493 1492 1490 1487 1486 1484 1484 1483 1481 1481 1480 1479 1480 1478 1479 1477 1476 1476 1473 1473 1464 1443 1436 1437 1434 1431 1429 1434 1438 1439 1442 1442 1441 1441 1443 1445 1446 1449 1450 1451 1456 1460 1461 1461 1463 1467 1464 1457 1455 1460 1463 1465 1470 1474 1474 1477 1483 1484 1480 1479 1481 1482 1484 1487 1490 1495 1505 1510 1502 1503 1526 1527 1511 1510 1510 1504 1504 1502 1502 1503 1502 1503 1503 1504 1506 1507 1507 1509
1492 1491 1488 1487 1484 1481 1482 1481 1480 1481 1478 1478 1479 1476 1479 1476 1475 1476 1473 1477 1471 1446 1436 1436 1433 1430 1427 1430 1433 1436 1444 1441 1436 1439 1441 1442 1444 1446 1450 1450 1451 1456 1458 1459 1462 1462 1458 1454 1455 1460 1463 1465 1469 1472 1470 1471 1482 1487 1477 1470 1473 1476 1481 1486 1489 1496 1508 1511 1498 1495 1516 1525 1515 1509 1506 1504 1504 1502 1501 1501 1500 1500 1501 1502 1503 1504 1505 1507
1491 1489 1487 1485 1483 1480 1479 1479 1479 1479 1477 1477 1476 1476 1477 1474 1476 1474 1474 1488 1477 1444 1436 1436 1432 1431 1427 1428 1429 1435 1445 1439 1433 1437 1436 1440 1442 1442 1449 1451 1450 1453 1451 1456 1464 1459 1452 1454 1456 1458 1461 1465 1469 1471 1466 1466 1479 1483 1469 1465 1471 1474 1480 1485 1485 1492 1496 1496 1497 1497 1503 1516 1518 1507 1500 1502 1505 1505 1502 1499 1496 1497 1498 1498 1499 1500 1502 1503
1489 1488 1485 1483 1483 1481 1478 1477 1478 1477 1477 1476 1474 1476 1475 1473 1476 1471 1480 1500 1474 1436 1435 1434 1428 1429 1427 1428 1429 1430 1435 1432 1433 1436 1433 1437 1440 1439 1446 1448 1449 1452 1447 1455 1466 1456 1448 1453 1455 1457 1462 1465 1465 1463 1460 1462 1473 1471 1461 1464 1469 1470 1476 1480 1483 1488 1487 1494 1508 1506 1501 1513 1517 1502 1497 1502 1505 1506 1500 1494 1492 1491 1492 1494 1495 1497 1498 1500
1487 1486 1484 1481 1481 1481 1477 1476 1476 1475 1476 1474 1474 1475 1472 1474 1473 1470 1488 1497 1461 1433 1435 1431 1428 1429 1427 1429 1430 1427 1428 1429 1432 1433 1430 1435 1438 1438 1443 1443 1445 1449 1447 1450 1459 1454 1447 1448 1449 1452 1459 1461 1458 1455 1455 1460 1466 1461 1458 1463 1467 1469 1473 1477 1483 1488 1490 1500 1511 1506 1499 1510 1513 1502 1500 1505 1506 1502 1493 1487 1485 1485 1488 1490 1491 1493 1494 1496
1485 1484 1482 1479 1478 1478 1476 1474 1475 1475 1474 1473 1474 1473 1472 1473 1472 1482 1502 1489 1453 1439 1435 1430 1432 1430 1428 1432 1432 1429 1428 1428 1428 1429 1430 1433 1436 1437 1439 1441 1443 1447 1449 1449 1452 1451 1445 1443 1444 1446 1450 1451 1451 1451 1452 1455 1457 1455 1460 1466 1470 1474 1475 1479 1483 1486 1499 1510 1505 1497 1493 1499 1507 1503 1498 1497 1491 1484 1481 1481 1481 1481 1484 1486 1487 1488 1490 1492
1482 1482 1481 1477 1475 1475 1473 1472 1473 1474 1473 1473 1473 1472 1473 1473 1474 1492 1498 1470 1449 1443 1435 1434 1435 1431 1432 1436 1436 1432 1429 1429 1427 1429 1433 1433 1436 1439 1439 1444 1446 1449 1454 1453 1453 1452 1447 1447 1445 1442 1442 1443 1447 1451 1451 1450 1451 1456 1464 1470 1477 1483 1483 1488 1490 1491 1508 1514 1497 1488 1489 1496 1504 1498 1487 1481 1472 1468 1471 1473 1473 1474 1476 1478 1481 1484 1486 1489
1479 1479 1478 1476 1473 1472 1471 1471 1471 1472 1472 1472 1472 1471 1473 1478 1483 1486 1476 1457 1451 1446 1438 1441 1437 1433 1436 1436 1436 1434 1431 1431 1427 1428 1433 1434 1439 1441 1440 1444 1447 1455 1463 1460 1458 1456 1452 1449 1445 1441 1439 1439 1447 1455 1455 1453 1454 1461 1468 1474 1486 1495 1498 1503 1505 1504 1509 1503 1487 1484 1490 1498 1498 1483 1474 1473 1467 1462 1462 1461 1461 1464 1468 1472 1475 1479 1483 1487
1476 1475 1474 1473 1470 1468 1469 1470 1469 1470 1470 1471 1472 1471 1474 1485 1485 1472 1462 1457 1450 1441 1438 1441 1436 1434 1437 1436 1437 1434 1432 1432 1428 1428 1430 1431 1438 1440 1439 1439 1439 1450 1460 1459 1460 1461 1459 1452 1444 1445 1442 1435 1442 1454 1459 1460 1460 1464 1469 1475 1488 1499 1509 1514 1513 1513 1510 1494 1481 1481 1490 1499 1494 1475 1466 1465 1459 1452 1451 1453 1455 1458 1463 1466 1470 1476 1481 1484
1473 1472 1469 1468 1467 1465 1466 1467 1466 1467 1469 1470 1471 1472 1479 1487 1476 1461 1460 1456 1445 1438 1439 1440 1437 1436 1436 1437 1437 1432 1433 1434 1426 1428 1431 1432 1440 1442 1440 1439 1436 1441 1449 1455 1459 1459 1466 1462 1446 1444 1443 1435 1437 1444 1449 1453 1457 1460 1459 1466 1478 1485 1496 1505 1504 1504 1502 1491 1486 1488 1493 1497 1488 1468 1455 1452 1449 1447 1450 1453 1454 1458 1462 1464 1468 1474 1478 1481
1470 1469 1466 1463 1463 1463 1462 1462 1462 1463 1466 1467 1470 1475 1480 1480 1468 1459 1458 1452 1446 1445 1442 1440 1440 1441 1438 1436 1432 1428 1432 1433 1427 1429 1433 1434 1438 1440 1438 1438 1437 1438 1444 1454 1457 1452 1461 1459 1440 1435 1435 1432 1436 1436 1436 1446 1456 1456 1453 1461 1470 1468 1472 1484 1488 1486 1485 1487 1491 1492 1487 1479 1468 1455 1447 1447 1447 1447 1451 1454 1455 1459 1461 1464 1470 1473 1474 1477
1466 1464 1463 1460 1460 1459 1458 1457 1458 1460 1463 1464 1470 1475 1473 1467 1460 1456 1451 1445 1446 1446 1445 1445 1442 1443 1444 1438 1433 1430 1429 1430 1429 1431 1434 1433 1433 1433 1433 1431 1431 1433 1437 1447 1451 1450 1457 1454 1436 1433 1433 1429 1433 1433 1431 1442 1453 1454 1456 1461 1459 1453 1457 1473 1483 1481 1481 1488 1490 1486 1479 1469 1465 1458 1449 1449 1449 1448 1451 1452 1453 1454 1457 1463 1466 1467 1470 1473
1462 1460 1459 1457 1456 1455 1454 1453 1454 1457 1459 1461 1467 1468 1463 1457 1452 1450 1445 1443 1445 1444 1447 1453 1447 1444 1447 1442 1437 1435 1432 1432 1431 1432 1434 1434 1432 1429 1428 1426 1424 1426 1429 1435 1442 1442 1448 1451 1436 1432 1436 1429 1425 1430 1429 1430 1438 1449 1457 1453 1449 1453 1456 1464 1478 1486 1491 1492 1485 1481 1477 1472 1473 1468 1455 1452 1452 1451 1450 1449 1450 1453 1456 1459 1461 1463 1466 1468
1461 1458 1456 1454 1454 1452 1451 1450 1450 1453 1456 1460 1463 1461 1457 1453 1447 1446 1445 1444 1445 1444 1448 1454 1449 1443 1445 1445 1441 1436 1436 1439 1437 1434 1435 1434 1429 1422 1422 1424 1421 1420 1421 1425 1435 1435 1438 1450 1440 1428 1433 1429 1422 1432 1437 1429 1427 1436 1442 1438 1444 1461 1466 1465 1474 1484 1493 1495 1486 1478 1475 1472 1471 1465 1455 1453 1452 1449 1449 1449 1450 1452 1453 1454 1456 1459 1463 1465
1461 1457 1454 1453 1451 1449 1447 1448 1449 1451 1454 1460 1463 1458 1452 1449 1445 1444 1445 1445 1446 1447 1448 1450 1447 1443 1442 1443 1442 1437 1437 1440 1439 1438 1437 1434 1428 1417 1414 1418 1417 1417 1418 1420 1430 1431 1433 1447 1446 1429 1426 1427 1425 1434 1441 1436 1429 1430 1434 1436 1440 1450 1457 1459 1464 1468 1477 1490 1489 1480 1476 1470 1461 1453 1446 1444 1443 1444 1448 1449 1448 1448 1447 1449 1452 1455 1459 1462
1462 1458 1455 1453 1451 1449 1448 1450 1452 1453 1453 1455 1458 1454 1449 1447 1445 1443 1444 1445 1445 1446 1447 1446 1445 1444 1442 1439 1440 1437 1435 1436 1436 1437 1435 1431 1427 1419 1411 1411 1413 1413 1414 1416 1422 1427 1430 1442 1446 1434 1427 1430 1432 1430 1431 1433 1435 1436 1441 1445 1443 1444 1447 1451 1457 1458 1461 1475 1482 1481 1478 1465 1447 1440 1435 1431 1434 1439 1441 1441 1442 1443 1444 1446 1449 1452 1455 1458
1463 1460 1456 1454 1452 1451 1452 1455 1454 1453 1452 1452 1452 1450 1448 1446 1444 1443 1443 1444 1444 1443 1443 1442 1442 1442 1440 1439 1439 1436 1434 1434 1433 1434 1433 1427 1426 1421 1410 1405 1407 1408 1413 1419 1421 1423 1429 1436 1441 1439 1434 1435 1431 1421 1418 1422 1427 1432 1437 1441 1440 1442 1447 1455 1462 1460 1454 1460 1467 1471 1473 1458 1436 1430 1427 1424 1428 1432 1432 1434 1437 1438 1441 1444 1446 1449 1451 1454
1465 1462 1458 1455 1454 1453 1454 1455 1454 1452 1451 1450 1448 1447 1446 1444 1443 1443 1442 1442 1442 1440 1439 1439 1438 1438 1437 1436 1435 1434 1434 1432 1430 1431 1429 1423 1420 1415 1405 1399 1400 1401 1408 1418 1417 1414 1419 1428 1437 1438 1433 1431 1424 1415 1415 1416 1417 1422 1426 1428 1431 1435 1440 1452 1461 1458 1454 1458 1459 1461 1466 1451 1430 1425 1424 1422 1425 1427 1427 1431 1433 1436 1438 1440 1443 1446 1449 1451
1465 1462 1456 1455 1455 1453 1455 1455 1453 1452 1450 1447 1445 1444 1444 1443 1442 1442 1441 1441 1441 1438 1437 1436 1434 1434 1432 1431 1431 1431 1431 1429 1426 1425 1423 1418 1411 1403 1396 1394 1395 1397 1402 1411 1412 1411 1415 1424 1434 1437 1430 1423 1417 1412 1412 1412 1417 1424 1423 1420 1424 1428 1429 1435 1443 1445 1449 1456 1457 1461 1468 1450 1428 1424 1423 1422 1425 1427 1428 1431 1432 1434 1436 1438 1441 1444 1446 1449
1464 1460 1454 1454 1454 1452 1454 1454 1452 1450 1448 1446 1445 1444 1443 1442 1441 1441 1440 1440 1438 1435 1435 1433 1431 1430 1428 1429 1429 1427 1428 1429 1424 1420 1419 1415 1405 1395 1391 1389 1391 1394 1397 1402 1404 1407 1416 1423 1429 1438 1442 1437 1430 1426 1421 1417 1419 1424 1423 1419 1419 1421 1424 1429 1435 1440 1447 1451 1450 1457 1463 1448 1428 1425 1424 1422 1425 1426 1427 1429 1430 1432 1434 1437 1440 1441 1443 1447
1464 1459 1453 1452 1452 1451 1452 1451 1451 1450 1449 1447 1446 1445 1443 1441 1439 1438 1437 1436 1434 1433 1433 1430 1427 1426 1425 1427 1429 1425 1424 1428 1425 1419 1416 1411 1401 1392 1388 1388 1388 1388 1388 1389 1390 1397 1411 1418 1420 1433 1448 1450 1444 1436 1428 1422 1420 1420 1419 1418 1416 1417 1422 1427 1434 1442 1447 1451 1449 1448 1450 1441 1429 1427 1426 1424 1426 1427 1427 1429 1430 1432 1433 1435 1437 1439 1441 1444
1468 1463 1456 1452 1451 1450 1451 1451 1451 1452 1451 1451 1449 1444 1443 1441 1437 1436 1435 1433 1430 1427 1428 1426 1424 1424 1423 1426 1430 1428 1423 1422 1422 1420 1417 1412 1404 1395 1388 1387 1386 1384 1383 1385 1387 1393 1405 1411 1412 1419 1428 1432 1430 1424 1417 1416 1418 1419 1417 1416 1416 1415 1416 1421 1432 1439 1440 1447 1449 1441 1436 1436 1432 1430 1429 1426 1425 1425 1426 1426 1427 1429 1431 1432 1434 1436 1439 1441
1470 1466 1462 1459 1455 1451 1451 1450 1451 1453 1453 1453 1451 1444 1442 1441 1438 1435 1433 1431 1428 1426 1424 1421 1420 1421 1422 1423 1428 1429 1423 1419 1418 1419 1417 1412 1406 1397 1388 1384 1384 1383 1384 1387 1389 1393 1403 1409 1409 1410 1412 1412 1412 1411 1411 1413 1415 1415 1414 1413 1414 1414 1415 1420 1427 1429 1431 1442 1447 1436 1431 1434 1431 1427 1427 1425 1423 1423 1422 1422 1422 1423 1425 1429 1432 1435 1437 1440
1469 1466 1464 1464 1462 1457 1455 1452 1452 1453 1452 1452 1450 1444 1442 1441 1440 1438 1434 1429 1427 1425 1423 1420 1417 1416 1415 1416 1421 1423 1421 1420 1420 1419 1415 1411 1408 1402 1393 1386 1385 1384 1386 1389 1388 1391 1402 1407 1406 1407 1407 1405 1405 1404 1406 1410 1412 1410 1411 1411 1410 1412 1416 1418 1419 1420 1423 1431 1432 1428 1429 1429 1423 1421 1422 1418 1416 1416 1415 1416 1417 1419 1423 1427 1431 1433 1435 1438
1469 1467 1464 1464 1464 1460 1458 1455 1454 1453 1451 1449 1447 1444 1441 1441 1440 1438 1435 1432 1428 1423 1421 1422 1418 1412 1409 1409 1414 1417 1418 1421 1425 1421 1415 1412 1410 1408 1403 1396 1390 1386 1387 1390 1387 1387 1397 1403 1401 1405 1407 1404 1404 1403 1401 1405 1409 1409 1409 1409 1407 1408 1410 1410 1411 1414 1415 1417 1417 1418 1424 1422 1414 1412 1412 1408 1407 1408 1410 1413 1416 1419 1422 1425 1428 1431 1432 1434
1470 1469 1466 1465 1464 1460 1457 1455 1454 1453 1450 1448 1445 1443 1441 1441 1440 1438 1435 1435 1434 1426 1421 1421 1417 1411 1409 1408 1409 1411 1411 1415 1421 1420 1415 1415 1412 1408 1406 1403 1396 1390 1389 1392 1389 1386 1393 1399 1397 1401 1408 1407 1402 1401 1401 1403 1407 1408 1407 1406 1406 1408 1409 1406 1408 1412 1414 1414 1415 1418 1424 1421 1409 1404 1404 1404 1405 1408 1411 1414 1416 1418 1420 1422 1425 1427 1429 1431
1471 1470 1469 1468 1465 1459 1456 1455 1454 1453 1451 1447 1445 1444 1443 1442 1441 1440 1435 1430 1431 1428 1421 1419 1416 1410 1409 1408 1406 1406 1405 1405 1411 1411 1410 1412 1410 1406 1404 1400 1397 1396 1395 1393 1392 1388 1392 1398 1396 1400 1410 1408 1399 1400 1403 1402 1405 1408 1406 1403 1404 1407 1409 1407 1406 1409 1410 1412 1417 1424 1427 1419 1407 1402 1405 1406 1407 1409 1410 1412 1414 1416 1418 1420 1422 1424 1427 1430
1470 1469 1469 1469 1466 1459 1457 1456 1454 1453 1450 1446 1446 1446 1446 1444 1442 1442 1438 1428 1424 1423 1420 1419 1415 1409 1408 1409 1406 1405 1404 1402 1403 1404 1404 1404 1402 1400 1399 1396 1394 1398 1397 1394 1393 1390 1391 1396 1396 1400 1409 1406 1397 1398 1402 1404 1414 1416 1404 1397 1399 1401 1402 1402 1403 1405 1406 1408 1414 1419 1416 1407 1401 1402 1406 1408 1408 1409 1408 1408 1410 1413 1416 1418 1420 1423 1426 1429